TimeEST,TemperatureF,Dew PointF,Humidity,Sea Level PressureIn,VisibilityMPH,Wind Direction,Wind SpeedMPH,Gust SpeedMPH,PrecipitationIn,Events,Conditions,WindDirDegrees,DateUTC
12:15 AM,32.0,23.0,69,30.14,10.0,NNW,10.4,18.4,N/A,,Clear,330,2013-02-25 05:15:00
12:35 AM,32.0,21.2,64,30.14,10.0,NW,8.1,-,N/A,,Clear,310,2013-02-25 05:35:00
12:55 AM,32.0,21.2,64,30.14,10.0,WNW,6.9,-,N/A,,Clear,300,2013-02-25 05:55:00
1:15 AM,32.0,21.2,64,30.14,10.0,NNW,3.5,-,N/A,,Clear,330,2013-02-25 06:15:00
1:35 AM,32.0,21.2,64,30.15,10.0,NW,5.8,-,N/A,,Clear,320,2013-02-25 06:35:00
1:55 AM,32.0,21.2,64,30.15,10.0,WNW,4.6,-,N/A,,Clear,290,2013-02-25 06:55:00
2:15 AM,32.0,19.4,60,30.14,10.0,WNW,4.6,-,N/A,,Clear,300,2013-02-25 07:15:00
2:35 AM,30.2,19.4,64,30.14,10.0,WNW,4.6,-,N/A,,Clear,300,2013-02-25 07:35:00
2:55 AM,30.2,19.4,64,30.14,10.0,Calm,Calm,-,N/A,,Clear,0,2013-02-25 07:55:00
3:15 AM,30.2,19.4,64,30.14,10.0,Calm,Calm,-,N/A,,Clear,0,2013-02-25 08:15:00
3:35 AM,30.2,19.4,64,30.15,10.0,Calm,Calm,-,N/A,,Clear,0,2013-02-25 08:35:00
3:55 AM,26.6,21.2,80,30.15,10.0,NNW,3.5,-,N/A,,Clear,340,2013-02-25 08:55:00
4:15 AM,26.6,21.2,80,30.14,10.0,NNE,3.5,-,N/A,,Clear,20,2013-02-25 09:15:00
4:35 AM,26.6,21.2,80,30.16,10.0,Calm,Calm,-,N/A,,Clear,0,2013-02-25 09:35:00
4:55 AM,26.6,21.2,80,30.17,10.0,Calm,Calm,-,N/A,,Clear,0,2013-02-25 09:55:00
5:15 AM,26.6,21.2,80,30.18,10.0,Calm,Calm,-,N/A,,Clear,0,2013-02-25 10:15:00
5:35 AM,24.8,21.2,86,30.17,10.0,Calm,Calm,-,N/A,,Clear,0,2013-02-25 10:35:00
5:55 AM,26.6,21.2,80,30.19,10.0,West,3.5,-,N/A,,Clear,260,2013-02-25 10:55:00
6:15 AM,28.4,21.2,74,30.18,10.0,NNW,4.6,-,N/A,,Clear,330,2013-02-25 11:15:00
6:35 AM,30.2,21.2,69,30.18,10.0,NNW,4.6,-,N/A,,Clear,340,2013-02-25 11:35:00
6:55 AM,30.2,21.2,69,30.19,10.0,NNW,3.5,-,N/A,,Clear,330,2013-02-25 11:55:00
7:15 AM,30.2,21.2,69,30.19,10.0,NNW,3.5,-,N/A,,Clear,340,2013-02-25 12:15:00
7:35 AM,30.2,23.0,75,30.19,10.0,NW,4.6,-,N/A,,Clear,320,2013-02-25 12:35:00
7:55 AM,32.0,23.0,69,30.21,10.0,NW,4.6,-,N/A,,Clear,320,2013-02-25 12:55:00
8:15 AM,32.0,23.0,69,30.21,10.0,NNW,5.8,-,N/A,,Clear,330,2013-02-25 13:15:00
8:35 AM,32.0,23.0,69,30.21,10.0,NNW,4.6,-,N/A,,Clear,330,2013-02-25 13:35:00
8:55 AM,32.0,23.0,69,30.21,10.0,NNW,4.6,-,N/A,,Clear,330,2013-02-25 13:55:00
9:15 AM,33.8,24.8,70,30.23,10.0,NW,5.8,-,N/A,,Clear,310,2013-02-25 14:15:00
9:35 AM,33.8,23.0,65,30.23,10.0,NW,10.4,-,N/A,,Clear,310,2013-02-25 14:35:00
9:55 AM,35.6,24.8,65,30.23,10.0,NW,8.1,-,N/A,,Clear,310,2013-02-25 14:55:00
10:15 AM,37.4,24.8,60,30.23,10.0,NW,6.9,-,N/A,,Clear,320,2013-02-25 15:15:00
10:35 AM,37.4,24.8,60,30.23,10.0,NNW,6.9,-,N/A,,Clear,330,2013-02-25 15:35:00
10:55 AM,39.2,23.0,52,30.23,10.0,NNW,9.2,-,N/A,,Clear,330,2013-02-25 15:55:00
11:15 AM,39.2,23.0,52,30.23,10.0,NW,5.8,-,N/A,,Clear,320,2013-02-25 16:15:00
11:35 AM,41.0,23.0,49,30.24,10.0,NW,4.6,-,N/A,,Clear,320,2013-02-25 16:35:00
11:55 AM,41.0,23.0,49,30.23,10.0,Calm,Calm,-,N/A,,Clear,0,2013-02-25 16:55:00
12:15 PM,41.0,23.0,49,30.22,10.0,North,5.8,-,N/A,,Clear,10,2013-02-25 17:15:00
12:35 PM,41.0,23.0,49,30.22,10.0,North,3.5,-,N/A,,Clear,10,2013-02-25 17:35:00
12:55 PM,42.8,23.0,46,30.21,10.0,South,3.5,-,N/A,,Clear,170,2013-02-25 17:55:00
1:15 PM,42.8,23.0,46,30.21,10.0,NNE,3.5,-,N/A,,Clear,30,2013-02-25 18:15:00
1:35 PM,42.8,23.0,46,30.18,10.0,NE,5.8,-,N/A,,Clear,50,2013-02-25 18:35:00
1:55 PM,42.8,23.0,46,30.18,10.0,Calm,Calm,-,N/A,,Clear,0,2013-02-25 18:55:00
2:15 PM,42.8,23.0,46,30.17,10.0,Calm,Calm,-,N/A,,Clear,0,2013-02-25 19:15:00
2:35 PM,42.8,23.0,46,30.18,10.0,Calm,Calm,-,N/A,,Clear,0,2013-02-25 19:35:00
2:55 PM,42.8,23.0,46,30.17,10.0,NNW,3.5,-,N/A,,Clear,330,2013-02-25 19:55:00
3:15 PM,42.8,23.0,46,30.17,10.0,Calm,Calm,-,N/A,,Clear,0,2013-02-25 20:15:00
3:35 PM,42.8,23.0,46,30.17,10.0,NNW,3.5,-,N/A,,Clear,340,2013-02-25 20:35:00
3:55 PM,42.8,23.0,46,30.17,10.0,Calm,Calm,-,N/A,,Clear,0,2013-02-25 20:55:00
4:15 PM,42.8,23.0,46,30.17,10.0,WNW,3.5,-,N/A,,Clear,300,2013-02-25 21:15:00
4:35 PM,44.6,23.0,43,30.18,10.0,NW,3.5,-,N/A,,Clear,320,2013-02-25 21:35:00
4:55 PM,42.8,21.2,42,30.17,10.0,NNW,3.5,-,N/A,,Clear,340,2013-02-25 21:55:00
5:15 PM,42.8,23.0,46,30.18,10.0,Calm,Calm,-,N/A,,Clear,0,2013-02-25 22:15:00
5:35 PM,42.8,21.2,42,30.18,10.0,Calm,Calm,-,N/A,,Clear,0,2013-02-25 22:35:00
5:55 PM,41.0,23.0,49,30.18,10.0,Calm,Calm,-,N/A,,Clear,0,2013-02-25 22:55:00
6:15 PM,37.4,23.0,56,30.18,10.0,Calm,Calm,-,N/A,,Clear,0,2013-02-25 23:15:00
6:35 PM,35.6,23.0,60,30.20,10.0,Calm,Calm,-,N/A,,Clear,0,2013-02-25 23:35:00
6:55 PM,35.6,24.8,65,30.21,10.0,Calm,Calm,-,N/A,,Clear,0,2013-02-25 23:55:00
7:15 PM,32.0,26.6,80,30.21,10.0,Calm,Calm,-,N/A,,Clear,0,2013-02-26 00:15:00
7:35 PM,32.0,26.6,80,30.21,10.0,Calm,Calm,-,N/A,,Clear,0,2013-02-26 00:35:00
7:55 PM,32.0,26.6,80,30.21,10.0,Calm,Calm,-,N/A,,Clear,0,2013-02-26 00:55:00
8:15 PM,32.0,26.6,80,30.22,10.0,Calm,Calm,-,N/A,,Clear,0,2013-02-26 01:15:00
8:35 PM,30.2,24.8,80,30.21,10.0,Calm,Calm,-,N/A,,Clear,0,2013-02-26 01:35:00
8:55 PM,30.2,24.8,80,30.21,10.0,Calm,Calm,-,N/A,,Clear,0,2013-02-26 01:55:00
9:15 PM,28.4,24.8,86,30.20,10.0,Calm,Calm,-,N/A,,Clear,0,2013-02-26 02:15:00
9:35 PM,28.4,24.8,86,30.21,10.0,Calm,Calm,-,N/A,,Clear,0,2013-02-26 02:35:00
9:55 PM,28.4,24.8,86,30.22,10.0,Calm,Calm,-,N/A,,Clear,0,2013-02-26 02:55:00
10:15 PM,28.4,23.0,80,30.21,10.0,Calm,Calm,-,N/A,,Clear,0,2013-02-26 03:15:00
10:35 PM,28.4,24.8,86,30.20,10.0,Calm,Calm,-,N/A,,Clear,0,2013-02-26 03:35:00
10:55 PM,26.6,23.0,86,30.20,10.0,Calm,Calm,-,N/A,,Clear,0,2013-02-26 03:55:00
11:15 PM,26.6,23.0,86,30.21,10.0,Calm,Calm,-,N/A,,Clear,0,2013-02-26 04:15:00
11:35 PM,26.6,23.0,86,30.21,10.0,Calm,Calm,-,N/A,,Clear,0,2013-02-26 04:35:00
11:55 PM,26.6,23.0,86,30.21,10.0,Calm,Calm,-,N/A,,Clear,0,2013-02-26 04:55:00